Location: Ahausen
(50.4985°N, 8.2722°E)
Time: 10:41:16
(UTC+00:00)

SPOT 5 - Pass Details

Date: 18 September 2020
Orbit: 623 x 815 km, 98.3° (Epoch: 25 October)

Event Time Altitude Azimuth Distance (km) Brightness Sun altitude
Exits shadow 20:40:10 54° 33° (NNE) 959 3.4 -27.8°
Drops below altitude 10° 20:44:38 10° 352° (N) 2,396 6.2 -28.3°
Sets 20:47:03 0° 349° (NNW) 3,344 7.1 -28.6°
